FW4331 Weather Reports


Display with metric or nautical units.
time (UTC)temp
F
wind
direction
speed
MPH
gust
MPH
rain 1hr
in
rain 24hr
in
rain mn
in
humidity
%
barometer
mb
20260504190056 77 255 3.0 10.0 0.00 0.00 0.00 23 1009.3
20260504184546 76 205 3.0 14.0 0.00 0.00 0.00 21 1009.6
20260504183054 75 291 5.0 11.0 0.00 0.00 0.00 22 1009.9
20260504181538 74 165 3.0 18.0 0.00 0.00 0.00 21 1010.1
20260504180054 74 226 5.0 14.0 0.00 0.00 0.00 22 1010.4
20260504174533 74 302 5.0 12.0 0.00 0.00 0.00 23 1010.6
20260504173027 73 192 7.0 13.0 0.00 0.00 0.00 22 1010.9
20260504171524 73 150 4.0 15.0 0.00 0.00 0.00 23 1011.0
20260504081500 46 153 0.0 0.0 0.00 0.00 0.00 57 1014.0
20260504044533 44 297 0.0 0.0 0.00 0.00 0.00 61 1014.4
20260504043030 44 297 0.0 0.0 0.00 0.00 0.00 60 1014.4
20260504041517 44 297 0.0 0.0 0.00 0.00 0.00 57 1014.3
20260504040018 44 297 0.0 0.0 0.00 0.00 0.00 59 1014.2
20260504034511 44 297 0.0 0.0 0.00 0.00 0.00 60 1014.3
20260504033009 45 297 0.0 0.0 0.00 0.00 0.00 60 1014.6
20260504031507 45 297 0.0 0.0 0.00 0.00 0.00 59 1014.3
20260504030005 46 257 0.0 0.0 0.00 0.00 0.00 58 1014.3
20260504024503 46 257 0.0 0.0 0.00 0.00 0.00 56 1014.2
20260504023100 46 257 0.0 0.0 0.00 0.00 0.00 57 1014.1
20260504021601 47 257 0.0 0.0 0.00 0.00 0.00 56 1014.1
20260504020107 48 257 0.0 0.0 0.00 0.00 0.00 52 1014.0
20260504014557 48 257 0.0 0.0 0.00 0.00 0.00 44 1013.7
20260504013155 49 257 0.0 0.0 0.00 0.00 0.00 41 1013.7
20260504011548 50 257 0.0 0.0 0.00 0.00 0.00 40 1013.4
20260504010046 50 257 0.0 0.0 0.00 0.00 0.00 40 1013.3
20260504004546 52 257 0.0 0.0 0.00 0.00 0.00 37 1013.3
20260504003046 54 257 0.0 0.0 0.00 0.00 0.00 32 1013.3
20260504001540 55 256 0.0 0.0 0.00 0.00 0.00 32 1013.3
20260504000045 57 256 0.0 0.0 0.00 0.00 0.00 28 1013.2
20260503234536 58 256 0.0 0.0 0.00 0.00 0.00 24 1012.9
20260503233035 59 287 0.0 0.0 0.00 0.00 0.00 21 1012.9
20260503231533 60 272 0.0 3.0 0.00 0.00 0.00 20 1012.9
20260503230032 61 226 0.0 8.0 0.00 0.00 0.00 19 1012.9
20260503224530 62 249 0.0 3.0 0.00 0.00 0.00 17 1012.7
20260503223026 63 225 0.0 3.0 0.00 0.00 0.00 16 1012.9
20260503221525 64 300 1.0 8.0 0.00 0.00 0.00 16 1012.9
20260503220023 64 249 0.0 5.0 0.00 0.00 0.00 14 1013.1
20260503214621 64 330 2.0 5.0 0.00 0.00 0.00 16 1013.0
20260503213017 63 318 3.0 10.0 0.00 0.00 0.00 16 1013.1
20260503211515 64 291 2.0 11.0 0.00 0.00 0.00 18 1013.1
20260503210012 63 286 4.0 9.0 0.00 0.00 0.00 17 1013.1
20260503204510 63 195 1.0 9.0 0.00 0.00 0.00 17 1013.2
20260503203008 62 4 3.0 11.0 0.00 0.00 0.00 16 1013.4
20260503201506 63 350 3.0 12.0 0.00 0.00 0.00 16 1013.5
20260503200001 62 247 2.0 7.0 0.00 0.00 0.00 18 1013.7
20260503194605 62 228 3.0 15.0 0.00 0.00 0.00 18 1013.9
20260503193104 61 300 1.0 12.0 0.00 0.00 0.00 19 1014.2
20260503191604 61 170 2.0 6.0 0.00 0.00 0.00 22 1014.5